TimeCDT,TemperatureF,Dew PointF,Humidity,Sea Level PressureIn,VisibilityMPH,Wind Direction,Wind SpeedMPH,Gust SpeedMPH,PrecipitationIn,Events,Conditions,WindDirDegrees,DateUTC
12:53 AM,63.0,57.0,81,29.96,10.0,East,4.6,-,N/A,,Clear,90,2013-07-21 05:53:00
1:53 AM,62.1,57.0,84,29.96,10.0,NE,4.6,-,N/A,,Clear,50,2013-07-21 06:53:00
2:53 AM,63.0,57.0,81,29.95,10.0,NE,3.5,-,N/A,,Overcast,50,2013-07-21 07:53:00
3:53 AM,63.0,55.9,78,29.95,10.0,East,3.5,-,0.00,,Partly Cloudy,90,2013-07-21 08:53:00
4:53 AM,61.0,57.0,87,29.95,10.0,NE,4.6,-,N/A,,Clear,40,2013-07-21 09:53:00
5:53 AM,61.0,57.0,87,29.96,10.0,Calm,Calm,-,N/A,,Scattered Clouds,0,2013-07-21 10:53:00
6:53 AM,62.1,57.9,86,29.97,10.0,Calm,Calm,-,N/A,,Partly Cloudy,0,2013-07-21 11:53:00
7:53 AM,66.9,57.9,73,29.97,10.0,ESE,5.8,-,N/A,,Partly Cloudy,110,2013-07-21 12:53:00
8:53 AM,70.0,59.0,68,29.97,10.0,ESE,9.2,-,N/A,,Scattered Clouds,120,2013-07-21 13:53:00
9:53 AM,72.0,59.0,64,29.96,10.0,SSE,8.1,-,N/A,,Mostly Cloudy,150,2013-07-21 14:53:00
10:53 AM,75.0,61.0,62,29.96,10.0,Variable,4.6,-,N/A,,Scattered Clouds,0,2013-07-21 15:53:00
11:53 AM,77.0,64.0,64,29.95,10.0,SE,5.8,-,N/A,,Partly Cloudy,130,2013-07-21 16:53:00
12:53 PM,79.0,64.0,60,29.94,10.0,SSE,6.9,-,N/A,,Mostly Cloudy,160,2013-07-21 17:53:00
1:53 PM,81.0,64.9,58,29.91,10.0,ESE,5.8,-,N/A,,Mostly Cloudy,120,2013-07-21 18:53:00
2:53 PM,82.0,64.9,56,29.88,10.0,Calm,Calm,-,N/A,,Mostly Cloudy,0,2013-07-21 19:53:00
3:12 PM,77.0,64.4,65,29.89,7.0,SSW,17.3,26.5,0.00,Rain-Thunderstorm,Light Thunderstorms and Rain,200,2013-07-21 20:12:00
3:15 PM,73.4,66.2,78,29.89,1.5,South,24.2,31.1,0.00,Rain-Thunderstorm,Thunderstorms and Rain,190,2013-07-21 20:15:00
3:19 PM,71.6,66.2,83,29.90,0.5,South,28.8,36.8,0.13,Fog-Rain-Thunderstorm,Heavy Thunderstorms and Rain,190,2013-07-21 20:19:00
3:29 PM,69.8,64.4,83,29.89,2.0,SE,10.4,44.9,0.54,Rain-Thunderstorm,Light Thunderstorms and Rain,140,2013-07-21 20:29:00
3:36 PM,69.8,66.2,88,29.89,5.0,South,9.2,-,0.55,Rain-Thunderstorm,Light Thunderstorms and Rain,190,2013-07-21 20:36:00
3:53 PM,69.1,64.9,87,29.92,10.0,North,13.8,20.7,0.56,Rain-Thunderstorm,Light Thunderstorms and Rain,350,2013-07-21 20:53:00
4:02 PM,66.2,64.4,94,29.94,1.8,North,12.7,27.6,0.04,Rain-Thunderstorm,Light Thunderstorms and Rain,350,2013-07-21 21:02:00
4:11 PM,66.2,62.6,88,29.95,1.0,North,13.8,19.6,0.22,Rain-Thunderstorm,Light Thunderstorms and Rain,350,2013-07-21 21:11:00
4:16 PM,64.4,62.6,94,29.95,0.8,North,16.1,21.9,0.32,Rain-Thunderstorm,Light Thunderstorms and Rain,350,2013-07-21 21:16:00
4:49 PM,64.4,62.6,94,29.96,1.0,North,15.0,20.7,1.11,Rain-Thunderstorm,Heavy Thunderstorms and Rain,350,2013-07-21 21:49:00
4:53 PM,64.0,62.1,93,29.95,1.0,North,16.1,21.9,1.14,Rain-Thunderstorm,Heavy Thunderstorms and Rain,10,2013-07-21 21:53:00
5:18 PM,64.4,64.4,100,29.95,5.0,NE,11.5,18.4,0.09,Rain-Thunderstorm,Light Thunderstorms and Rain,40,2013-07-21 22:18:00
5:27 PM,64.4,64.4,100,29.94,9.0,NE,13.8,21.9,0.09,Rain,Light Rain,40,2013-07-21 22:27:00
5:53 PM,66.0,63.0,90,29.93,10.0,ENE,13.8,20.7,0.10,,Mostly Cloudy,70,2013-07-21 22:53:00
6:53 PM,66.0,62.1,87,29.94,10.0,ESE,11.5,-,N/A,,Mostly Cloudy,120,2013-07-21 23:53:00
7:53 PM,64.9,61.0,87,29.91,10.0,ESE,9.2,-,N/A,,Mostly Cloudy,120,2013-07-22 00:53:00
8:53 PM,66.0,61.0,84,29.90,10.0,ESE,9.2,-,N/A,,Mostly Cloudy,110,2013-07-22 01:53:00
9:53 PM,66.0,61.0,84,29.91,10.0,SE,4.6,-,N/A,,Mostly Cloudy,140,2013-07-22 02:53:00
10:53 PM,66.0,62.1,87,29.89,10.0,SSE,6.9,-,N/A,,Mostly Cloudy,150,2013-07-22 03:53:00
11:53 PM,66.0,62.1,87,29.89,10.0,South,6.9,-,N/A,,Overcast,190,2013-07-22 04:53:00